{"data":{"norad_id":62916,"epoch":"2026-05-24T15:31:24.342528Z","epoch_age_seconds":105327,"freshness":"FRESH","line1":"1 62916U 25027K   26144.64680952  .00165711  00000+0  12654-2 0  9997","line2":"2 62916  42.9974 250.2237 0003226 279.0023  81.0480 15.70910006 75134","mean_motion":15.70910006,"eccentricity":0.0003226,"inclination_deg":42.9974,"raan_deg":250.2237,"arg_perigee_deg":279.0023,"mean_anomaly_deg":81.048,"bstar":0.0012654,"rev_number":7513,"period_min":91.666613268743,"perigee_km":354.12245099309,"apogee_km":358.46750650578,"semimajor_km":6734.4319787494,"source":"CELESTRAK","updated_at":"2026-05-25T13:38:19.821026Z"}}